TimeIST,TemperatureF,Dew PointF,Humidity,Sea Level PressureIn,VisibilityMPH,Wind Direction,Wind SpeedMPH,Gust SpeedMPH,PrecipitationIn,Events,Conditions,WindDirDegrees,DateUTC
12:00 AM,68.0,60.8,78,29.95,0.4,Calm,Calm,-,N/A,Fog,Shallow Fog,0,2012-10-31 18:30:00
12:30 AM,68.0,60.8,78,29.95,0.3,Calm,Calm,-,N/A,Fog,Fog,0,2012-10-31 19:00:00
1:00 AM,68.0,60.8,78,29.95,0.2,Calm,Calm,-,N/A,Fog,Fog,0,2012-10-31 19:30:00
1:30 AM,66.2,60.8,83,29.95,0.2,Calm,Calm,-,N/A,Fog,Fog,0,2012-10-31 20:00:00
2:00 AM,66.2,60.8,83,29.95,0.2,Calm,Calm,-,N/A,Fog,Fog,0,2012-10-31 20:30:00
2:30 AM,64.4,60.8,88,29.92,0.2,WSW,3.5,-,N/A,Fog,Fog,240,2012-10-31 21:00:00
3:00 AM,64.4,60.8,88,29.92,0.2,Calm,Calm,-,N/A,Fog,Fog,0,2012-10-31 21:30:00
3:30 AM,62.6,60.8,94,29.92,0.2,Calm,Calm,-,N/A,Fog,Fog,0,2012-10-31 22:00:00
4:00 AM,62.6,60.8,94,29.92,0.2,Calm,Calm,-,N/A,Fog,Fog,0,2012-10-31 22:30:00
4:30 AM,62.6,60.8,94,29.92,0.2,Calm,Calm,-,N/A,Fog,Fog,0,2012-10-31 23:00:00
5:00 AM,62.6,59.0,88,29.92,0.2,Calm,Calm,-,N/A,Fog,Fog,0,2012-10-31 23:30:00
5:30 AM,60.8,59.0,94,29.92,0.2,WSW,3.5,-,N/A,Fog,Fog,240,2012-11-01 00:00:00
6:00 AM,60.8,59.0,94,29.95,0.2,West,3.5,-,N/A,Fog,Fog,260,2012-11-01 00:30:00
6:30 AM,60.8,59.0,94,29.95,0.2,West,2.3,-,N/A,Fog,Fog,260,2012-11-01 01:00:00
7:00 AM,60.8,59.0,94,29.95,0.2,West,3.5,-,N/A,Fog,Fog,260,2012-11-01 01:30:00
7:30 AM,60.8,59.0,94,29.98,0.2,WSW,4.6,-,N/A,Fog,Fog,250,2012-11-01 02:00:00
8:00 AM,62.6,59.0,88,29.98,0.2,WSW,5.8,-,N/A,Fog,Fog,250,2012-11-01 02:30:00
8:30 AM,62.6,59.0,88,29.98,0.3,WSW,4.6,-,N/A,Fog,Fog,240,2012-11-01 03:00:00
9:00 AM,66.2,60.8,83,30.01,0.3,West,3.5,-,N/A,Fog,Fog,260,2012-11-01 03:30:00
9:30 AM,68.0,60.8,78,30.01,0.4,WSW,3.5,-,N/A,Fog,Shallow Fog,240,2012-11-01 04:00:00
10:00 AM,69.8,60.8,73,30.01,0.4,West,5.8,-,N/A,,Smoke,270,2012-11-01 04:30:00
10:30 AM,71.6,60.8,69,30.01,0.4,West,4.6,-,N/A,,Smoke,260,2012-11-01 05:00:00
11:00 AM,73.4,60.8,65,29.98,0.4,WSW,3.5,-,N/A,,Smoke,250,2012-11-01 05:30:00
12:00 PM,78.8,60.8,54,29.98,0.5,West,3.5,-,N/A,,Smoke,260,2012-11-01 06:30:00
12:30 PM,80.6,60.8,51,29.95,0.6,WNW,5.8,-,N/A,,Smoke,290,2012-11-01 07:00:00
1:00 PM,80.6,60.8,51,29.95,0.7,WNW,4.6,-,N/A,,Smoke,300,2012-11-01 07:30:00
1:30 PM,80.6,59.0,48,29.92,0.7,WNW,3.5,-,N/A,,Smoke,300,2012-11-01 08:00:00
2:00 PM,80.6,59.0,48,29.92,0.7,WNW,3.5,-,N/A,,Smoke,300,2012-11-01 08:30:00
2:30 PM,82.4,59.0,45,29.89,0.7,WNW,4.6,-,N/A,,Smoke,290,2012-11-01 09:00:00
3:00 PM,82.4,59.0,45,29.89,0.7,WNW,4.6,-,N/A,,Smoke,290,2012-11-01 09:30:00
3:30 PM,80.6,60.8,51,29.89,0.7,WNW,5.8,-,N/A,,Smoke,290,2012-11-01 10:00:00
4:00 PM,80.6,62.6,54,29.89,0.7,West,5.8,-,N/A,,Smoke,280,2012-11-01 10:30:00
4:30 PM,78.8,62.6,57,29.89,0.7,West,5.8,-,N/A,,Smoke,260,2012-11-01 11:00:00
5:00 PM,78.8,62.6,57,29.89,0.7,WSW,3.5,-,N/A,,Smoke,240,2012-11-01 11:30:00
5:30 PM,75.2,62.6,65,29.89,0.7,WSW,4.6,-,N/A,,Smoke,240,2012-11-01 12:00:00
6:00 PM,75.2,62.6,65,29.89,0.7,West,3.5,-,N/A,,Smoke,270,2012-11-01 12:30:00
6:30 PM,73.4,62.6,69,29.89,0.6,West,3.5,-,N/A,,Smoke,270,2012-11-01 13:00:00
7:00 PM,73.4,62.6,69,29.92,0.6,Calm,Calm,-,N/A,,Smoke,0,2012-11-01 13:30:00
7:30 PM,73.4,62.6,69,29.92,0.6,Calm,Calm,-,N/A,,Smoke,0,2012-11-01 14:00:00
8:00 PM,71.6,62.6,73,29.92,0.6,Calm,Calm,-,N/A,,Smoke,0,2012-11-01 14:30:00
9:00 PM,69.8,62.6,78,29.92,0.4,Calm,Calm,-,N/A,Fog,Shallow Fog,0,2012-11-01 15:30:00
9:30 PM,69.8,62.6,78,29.92,0.4,Calm,Calm,-,N/A,Fog,Shallow Fog,0,2012-11-01 16:00:00
10:00 PM,69.8,62.6,78,29.92,0.4,Calm,Calm,-,N/A,Fog,Shallow Fog,0,2012-11-01 16:30:00
10:30 PM,69.8,62.6,78,29.92,0.4,Calm,Calm,-,N/A,Fog,Shallow Fog,0,2012-11-01 17:00:00
11:00 PM,68.0,62.6,83,29.92,0.3,Calm,Calm,-,N/A,Fog,Fog,0,2012-11-01 17:30:00
11:30 PM,68.0,62.6,83,29.92,0.3,Calm,Calm,-,N/A,Fog,Fog,0,2012-11-01 18:00:00